,,,PA_Meas_PMT16A,,PR_Meas_QMR101_102,,RH_Meas_QMH101,,SR_Meas_QMS101,,TA_Meas_QMH101,,GenWind,,GenWind,
date,time,status,PA,status,PR,status,RH,status,SR,status,TA,status,DirAvg,status,SpdAvg,
2010-07-31, 00:00:04,VALID,1002.43,VALID,0,VALID,93.3026,VALID,0,VALID,23.0946,VALID,102,VALID,0,
2010-07-31, 00:01:04,VALID,1002.41,VALID,0,VALID,93.2568,VALID,0,VALID,23.1159,VALID,102,VALID,0,
2010-07-31, 00:02:04,VALID,1002.39,VALID,0,VALID,93.2111,VALID,0,VALID,23.0946,VALID,102,VALID,0,
2010-07-31, 00:03:04,VALID,1002.38,VALID,0,VALID,93.1729,VALID,0,VALID,23.0946,VALID,102,VALID,0,
2010-07-31, 00:04:04,VALID,1002.35,VALID,0,VALID,93.1577,VALID,0,VALID,23.1159,VALID,102,VALID,0,
2010-07-31, 00:05:04,VALID,1002.32,VALID,0,VALID,93.1348,VALID,0,VALID,23.0964,VALID,102,VALID,0,
2010-07-31, 00:06:04,VALID,1002.34,VALID,0,VALID,93.1119,VALID,0,VALID,23.0946,VALID,102,VALID,0,
2010-07-31, 00:07:04,VALID,1002.3,VALID,0,VALID,93.089,VALID,0,VALID,23.0964,VALID,102,VALID,0,
2010-07-31, 00:08:04,VALID,1002.31,VALID,0,VALID,93.0814,VALID,0,VALID,23.0964,VALID,102,VALID,0,
2010-07-31, 00:09:04,VALID,1002.33,VALID,0,VALID,93.0737,VALID,0,VALID,23.0964,VALID,102,VALID,0,
2010-07-31, 00:10:04,VALID,1002.36,VALID,0,VALID,93.0814,VALID,0,VALID,23.0964,VALID,102,VALID,0,
2010-07-31, 00:11:04,VALID,1002.35,VALID,0,VALID,93.0814,VALID,0,VALID,23.0964,VALID,102,VALID,0,
2010-07-31, 00:12:04,VALID,1002.36,VALID,0,VALID,93.1195,VALID,0,VALID,23.0964,VALID,102,VALID,0,
2010-07-31, 00:13:04,VALID,1002.36,VALID,0,VALID,93.1577,VALID,0,VALID,23.0751,VALID,102,VALID,0,
2010-07-31, 00:14:04,VALID,1002.33,VALID,0,VALID,93.1577,VALID,0,VALID,23.0751,VALID,102,VALID,0,
2010-07-31, 00:15:04,VALID,1002.33,VALID,0,VALID,93.1805,VALID,0,VALID,23.0964,VALID,102,VALID,0,
2010-07-31, 00:16:04,VALID,1002.34,VALID,0,VALID,93.1653,VALID,0,VALID,23.0751,VALID,102,VALID,0,
2010-07-31, 00:17:04,VALID,1002.31,VALID,0,VALID,93.1424,VALID,0,VALID,23.0556,VALID,102,VALID,0,
2010-07-31, 00:18:04,VALID,1002.27,VALID,0,VALID,93.15,VALID,0,VALID,23.0556,VALID,102,VALID,0,
2010-07-31, 00:19:04,VALID,1002.26,VALID,0,VALID,93.1577,VALID,0,VALID,23.0556,VALID,102,VALID,0,
2010-07-31, 00:20:04,VALID,1002.25,VALID,0,VALID,93.1729,VALID,0,VALID,23.0573,VALID,102,VALID,0,
2010-07-31, 00:21:04,VALID,1002.27,VALID,0,VALID,93.1729,VALID,0,VALID,23.0573,VALID,102,VALID,0,
2010-07-31, 00:22:04,VALID,1002.26,VALID,0,VALID,93.2111,VALID,0,VALID,23.0378,VALID,102,VALID,0,
2010-07-31, 00:23:04,VALID,1002.23,VALID,0,VALID,93.2111,VALID,0,VALID,23.0378,VALID,102,VALID,0,
2010-07-31, 00:24:04,VALID,1002.24,VALID,0,VALID,93.2263,VALID,0,VALID,23.0591,VALID,102,VALID,0,
2010-07-31, 00:25:04,VALID,1002.24,VALID,0,VALID,93.2263,VALID,0,VALID,23.0378,VALID,102,VALID,0,
2010-07-31, 00:26:04,VALID,1002.21,VALID,0,VALID,93.2492,VALID,0,VALID,23.0378,VALID,102,VALID,0,
2010-07-31, 00:27:04,VALID,1002.23,VALID,0,VALID,93.2263,VALID,0,VALID,23.0183,VALID,102,VALID,0,
2010-07-31, 00:28:04,VALID,1002.22,VALID,0,VALID,93.2416,VALID,0,VALID,23.0183,VALID,102,VALID,0,
2010-07-31, 00:29:04,VALID,1002.21,VALID,0,VALID,93.2263,VALID,0,VALID,23.0183,VALID,102,VALID,0,
2010-07-31, 00:30:04,VALID,1002.18,VALID,0,VALID,93.2263,VALID,0,VALID,23.0183,VALID,102,VALID,0,
2010-07-31, 00:31:04,VALID,1002.19,VALID,0,VALID,93.1882,VALID,0,VALID,22.9988,VALID,102,VALID,0,
2010-07-31, 00:32:04,VALID,1002.18,VALID,0,VALID,93.1882,VALID,0,VALID,22.9988,VALID,102,VALID,0,
2010-07-31, 00:33:04,VALID,1002.15,VALID,0,VALID,93.1882,VALID,0,VALID,22.9988,VALID,102,VALID,0,
2010-07-31, 00:34:04,VALID,1002.15,VALID,0,VALID,93.1653,VALID,0,VALID,22.9988,VALID,102,VALID,0,
2010-07-31, 00:35:04,VALID,1002.14,VALID,0,VALID,93.0966,VALID,0,VALID,22.9793,VALID,102,VALID,0,
2010-07-31, 00:36:04,VALID,1002.13,VALID,0,VALID,93.0508,VALID,0,VALID,22.9988,VALID,102,VALID,0,
2010-07-31, 00:37:04,VALID,1002.15,VALID,0,VALID,92.9593,VALID,0,VALID,23.0183,VALID,116,VALID,0,
2010-07-31, 00:38:04,VALID,1002.16,VALID,0,VALID,92.8372,VALID,0,VALID,23.0378,VALID,141,VALID,0,
2010-07-31, 00:39:04,VALID,1002.17,VALID,0,VALID,92.6923,VALID,0,VALID,23.0573,VALID,142,VALID,0,
2010-07-31, 00:40:04,VALID,1002.16,VALID,0,VALID,92.4939,VALID,0,VALID,23.0769,VALID,141,VALID,0,
2010-07-31, 00:41:04,VALID,1002.16,VALID,0,VALID,92.1811,VALID,0,VALID,23.0964,VALID,132,VALID,1.525,
2010-07-31, 00:42:04,VALID,1002.16,VALID,0,VALID,92.0056,VALID,0,VALID,23.1354,VALID,135,VALID,1.10664,
2010-07-31, 00:43:04,VALID,1002.15,VALID,0,VALID,91.9217,VALID,0,VALID,23.1566,VALID,131,VALID,1.18164,
2010-07-31, 00:44:04,VALID,1002.16,VALID,0,VALID,91.914,VALID,0,VALID,23.1141,VALID,127,VALID,1.06484,
2010-07-31, 00:45:04,VALID,1002.17,VALID,0,VALID,91.9217,VALID,0,VALID,23.1354,VALID,124,VALID,0.849609,
2010-07-31, 00:46:04,VALID,1002.16,VALID,0,VALID,91.914,VALID,0,VALID,23.1159,VALID,118,VALID,1.14531,
2010-07-31, 00:47:04,VALID,1002.17,VALID,0,VALID,91.9064,VALID,0,VALID,23.1354,VALID,108,VALID,0.922656,
2010-07-31, 00:48:04,VALID,1002.15,VALID,0,VALID,91.914,VALID,0,VALID,23.1159,VALID,108,VALID,0.577734,
2010-07-31, 00:49:04,VALID,1002.14,VALID,0,VALID,91.9827,VALID,0,VALID,23.1354,VALID,108,VALID,0,
2010-07-31, 00:50:04,VALID,1002.15,VALID,0,VALID,92.0209,VALID,0,VALID,23.1159,VALID,108,VALID,0,
2010-07-31, 00:51:04,VALID,1002.12,VALID,0,VALID,92.0666,VALID,0,VALID,23.0964,VALID,108,VALID,0,
2010-07-31, 00:52:04,VALID,1002.11,VALID,0,VALID,92.0666,VALID,0,VALID,23.0964,VALID,108,VALID,0,
2010-07-31, 00:53:04,VALID,1002.1,VALID,0,VALID,92.1353,VALID,0,VALID,23.0964,VALID,108,VALID,0,
2010-07-31, 00:54:04,VALID,1002.12,VALID,0,VALID,92.1048,VALID,0,VALID,23.0769,VALID,108,VALID,0,
2010-07-31, 00:55:04,VALID,1002.09,VALID,0,VALID,92.1277,VALID,0,VALID,23.0981,VALID,108,VALID,0,
2010-07-31, 00:56:04,VALID,1002.11,VALID,0,VALID,92.0971,VALID,0,VALID,23.0769,VALID,132,VALID,0,
2010-07-31, 00:57:04,VALID,1002.12,VALID,0,VALID,92.0819,VALID,0,VALID,23.0769,VALID,132,VALID,0,
2010-07-31, 00:58:04,VALID,1002.12,VALID,0,VALID,92.0819,VALID,0,VALID,23.0769,VALID,132,VALID,0,
2010-07-31, 00:59:04,VALID,1002.1,VALID,0,VALID,92.0666,VALID,0,VALID,23.0964,VALID,132,VALID,0,
2010-07-31, 01:00:04,VALID,1002.1,VALID,0,VALID,92.0132,VALID,0,VALID,23.0573,VALID,132,VALID,0,
2010-07-31, 01:01:04,VALID,1002.11,VALID,0,VALID,91.9445,VALID,0,VALID,23.0573,VALID,132,VALID,0,
2010-07-31, 01:02:04,VALID,1002.12,VALID,0,VALID,91.9064,VALID,0,VALID,23.0573,VALID,132,VALID,0,
2010-07-31, 01:03:04,VALID,1002.09,VALID,0,VALID,91.8454,VALID,0,VALID,23.0378,VALID,132,VALID,0,
2010-07-31, 01:04:04,VALID,1002.06,VALID,0,VALID,91.7309,VALID,0,VALID,23.0378,VALID,142,VALID,0,
2010-07-31, 01:05:04,VALID,1002.08,VALID,0,VALID,91.5631,VALID,0,VALID,23.0378,VALID,142,VALID,0,
2010-07-31, 01:06:04,VALID,1002.07,VALID,0,VALID,91.441,VALID,0,VALID,23.0573,VALID,142,VALID,0,
2010-07-31, 01:07:04,VALID,1002.02,VALID,0,VALID,91.2426,VALID,0,VALID,23.0573,VALID,142,VALID,0,
2010-07-31, 01:08:04,VALID,1002.03,VALID,0,VALID,91.0824,VALID,0,VALID,23.0769,VALID,135,VALID,0,
2010-07-31, 01:09:04,VALID,1002,VALID,0,VALID,91.0366,VALID,0,VALID,23.0964,VALID,135,VALID,0,
2010-07-31, 01:10:04,VALID,1001.97,VALID,0,VALID,91.0595,VALID,0,VALID,23.1159,VALID,135,VALID,0,
2010-07-31, 01:11:04,VALID,1001.92,VALID,0,VALID,91.029,VALID,0,VALID,23.0964,VALID,135,VALID,0,
2010-07-31, 01:12:04,VALID,1001.94,VALID,0,VALID,91.0061,VALID,0,VALID,23.0964,VALID,132,VALID,0,
2010-07-31, 01:13:04,VALID,1001.92,VALID,0,VALID,91.0824,VALID,0,VALID,23.0964,VALID,107,VALID,0,
2010-07-31, 01:14:04,VALID,1001.9,VALID,0,VALID,91.1511,VALID,0,VALID,23.0964,VALID,106,VALID,0,
2010-07-31, 01:15:04,VALID,1001.91,VALID,0,VALID,91.2655,VALID,0,VALID,23.1159,VALID,105,VALID,0,
2010-07-31, 01:16:04,VALID,1001.9,VALID,0,VALID,91.38,VALID,0,VALID,23.0769,VALID,86,VALID,0,
2010-07-31, 01:17:04,VALID,1001.86,VALID,0,VALID,91.4639,VALID,0,VALID,23.0981,VALID,75,VALID,0,
2010-07-31, 01:18:04,VALID,1001.89,VALID,0,VALID,91.5478,VALID,0,VALID,23.0964,VALID,75,VALID,0,
2010-07-31, 01:19:04,VALID,1001.86,VALID,0,VALID,91.6088,VALID,0,VALID,23.0964,VALID,75,VALID,0,
2010-07-31, 01:20:04,VALID,1001.86,VALID,0,VALID,91.6088,VALID,0,VALID,23.0964,VALID,75,VALID,0,
2010-07-31, 01:21:04,VALID,1001.86,VALID,0,VALID,91.6546,VALID,0,VALID,23.0964,VALID,75,VALID,0,
2010-07-31, 01:22:04,VALID,1001.84,VALID,0,VALID,91.7385,VALID,0,VALID,23.0964,VALID,75,VALID,0,
2010-07-31, 01:23:04,VALID,1001.8,VALID,0,VALID,91.8301,VALID,0,VALID,23.0556,VALID,75,VALID,0,
2010-07-31, 01:24:04,VALID,1001.8,VALID,0,VALID,91.8911,VALID,0,VALID,23.0964,VALID,75,VALID,0,
2010-07-31, 01:25:04,VALID,1001.81,VALID,0,VALID,91.9674,VALID,0,VALID,23.0769,VALID,75,VALID,0,
2010-07-31, 01:26:04,VALID,1001.8,VALID,0,VALID,92.0209,VALID,0,VALID,23.0573,VALID,75,VALID,0,
2010-07-31, 01:27:04,VALID,1001.75,VALID,0,VALID,92.0819,VALID,0,VALID,23.0378,VALID,75,VALID,0,
2010-07-31, 01:28:04,VALID,1001.74,VALID,0,VALID,92.1506,VALID,0,VALID,23.0166,VALID,75,VALID,0,
2010-07-31, 01:29:04,VALID,1001.74,VALID,0,VALID,92.2116,VALID,0,VALID,22.9988,VALID,75,VALID,0,
2010-07-31, 01:30:04,VALID,1001.69,VALID,0,VALID,92.2574,VALID,0,VALID,22.9793,VALID,75,VALID,0,
2010-07-31, 01:31:04,VALID,1001.71,VALID,0,VALID,92.3337,VALID,0,VALID,22.9793,VALID,75,VALID,0,
2010-07-31, 01:32:04,VALID,1001.69,VALID,0,VALID,92.3794,VALID,0,VALID,22.9385,VALID,75,VALID,0,
2010-07-31, 01:33:04,VALID,1001.71,VALID,0,VALID,92.4405,VALID,0,VALID,22.9598,VALID,75,VALID,0,
2010-07-31, 01:34:04,VALID,1001.69,VALID,0,VALID,92.4786,VALID,0,VALID,22.9403,VALID,75,VALID,0,
2010-07-31, 01:35:04,VALID,1001.69,VALID,0,VALID,92.4939,VALID,0,VALID,22.9403,VALID,75,VALID,0,
2010-07-31, 01:36:04,VALID,1001.67,VALID,0,VALID,92.471,VALID,0,VALID,22.9013,VALID,75,VALID,0,
2010-07-31, 01:37:04,VALID,1001.68,VALID,0,VALID,92.532,VALID,0,VALID,22.9013,VALID,75,VALID,0,
2010-07-31, 01:38:04,VALID,1001.65,VALID,0,VALID,92.5931,VALID,0,VALID,22.88,VALID,75,VALID,0,
2010-07-31, 01:39:04,VALID,1001.61,VALID,0,VALID,92.6388,VALID,0,VALID,22.9013,VALID,75,VALID,0,
2010-07-31, 01:40:04,VALID,1001.61,VALID,0,VALID,92.6846,VALID,0,VALID,22.9013,VALID,75,VALID,0,
2010-07-31, 01:41:04,VALID,1001.57,VALID,0,VALID,92.7457,VALID,0,VALID,22.88,VALID,75,VALID,0,
2010-07-31, 01:42:04,VALID,1001.56,VALID,0,VALID,92.7685,VALID,0,VALID,22.8818,VALID,75,VALID,0,
2010-07-31, 01:43:04,VALID,1001.51,VALID,0,VALID,92.7914,VALID,0,VALID,22.8605,VALID,75,VALID,0,
2010-07-31, 01:44:04,VALID,1001.51,VALID,0,VALID,92.7685,VALID,0,VALID,22.8818,VALID,75,VALID,0,
2010-07-31, 01:45:04,VALID,1001.47,VALID,0,VALID,92.7685,VALID,0,VALID,22.8818,VALID,75,VALID,0,
2010-07-31, 01:46:04,VALID,1001.47,VALID,0,VALID,92.8296,VALID,0,VALID,22.8623,VALID,75,VALID,0,
2010-07-31, 01:47:04,VALID,1001.47,VALID,0,VALID,92.883,VALID,0,VALID,22.8818,VALID,75,VALID,0,
2010-07-31, 01:48:04,VALID,1001.45,VALID,0,VALID,92.944,VALID,0,VALID,22.8605,VALID,75,VALID,0,
2010-07-31, 01:49:04,VALID,1001.45,VALID,0,VALID,92.9974,VALID,0,VALID,22.8605,VALID,75,VALID,0,
2010-07-31, 01:50:04,VALID,1001.45,VALID,0,VALID,93.0432,VALID,0,VALID,22.8818,VALID,75,VALID,0,
2010-07-31, 01:51:04,VALID,1001.43,VALID,0,VALID,93.089,VALID,0,VALID,22.9013,VALID,75,VALID,0,
2010-07-31, 01:52:04,VALID,1001.42,VALID,0,VALID,93.0966,VALID,0,VALID,22.9013,VALID,75,VALID,0,
2010-07-31, 01:53:04,VALID,1001.45,VALID,0,VALID,93.1119,VALID,0,VALID,22.9013,VALID,75,VALID,0,
2010-07-31, 01:54:04,VALID,1001.44,VALID,0,VALID,93.0508,VALID,0,VALID,22.9013,VALID,75,VALID,0,
2010-07-31, 01:55:04,VALID,1001.43,VALID,0,VALID,93.0051,VALID,0,VALID,22.9013,VALID,56,VALID,0.168359,
2010-07-31, 01:56:04,VALID,1001.43,VALID,0,VALID,92.944,VALID,0,VALID,22.9013,VALID,56,VALID,0.951172,
2010-07-31, 01:57:04,VALID,1001.43,VALID,0,VALID,92.8754,VALID,0,VALID,22.8623,VALID,56,VALID,0.871484,
2010-07-31, 01:58:04,VALID,1001.42,VALID,0,VALID,92.8296,VALID,0,VALID,22.8818,VALID,56,VALID,0.821484,
2010-07-31, 01:59:04,VALID,1001.42,VALID,0,VALID,92.822,VALID,0,VALID,22.8623,VALID,56,VALID,0.810547,
2010-07-31, 02:00:04,VALID,1001.4,VALID,0,VALID,92.8372,VALID,0,VALID,22.8818,VALID,58,VALID,0.928125,
2010-07-31, 02:01:04,VALID,1001.45,VALID,0,VALID,92.8448,VALID,0,VALID,22.8818,VALID,75,VALID,1.00586,
2010-07-31, 02:02:04,VALID,1001.42,VALID,0,VALID,92.8448,VALID,0,VALID,22.9013,VALID,79,VALID,0.951563,
2010-07-31, 02:03:04,VALID,1001.43,VALID,0,VALID,92.8677,VALID,0,VALID,22.88,VALID,89,VALID,0.991406,
2010-07-31, 02:04:04,VALID,1001.42,VALID,0,VALID,92.8525,VALID,0,VALID,22.8818,VALID,98,VALID,0.986328,
2010-07-31, 02:05:04,VALID,1001.46,VALID,0,VALID,92.8448,VALID,0,VALID,22.9013,VALID,108,VALID,0.889844,
2010-07-31, 02:06:04,VALID,1001.46,VALID,0,VALID,92.8143,VALID,0,VALID,22.903,VALID,114,VALID,0.926562,
2010-07-31, 02:07:04,VALID,1001.41,VALID,0,VALID,92.7609,VALID,0,VALID,22.8818,VALID,114,VALID,0.880859,
2010-07-31, 02:08:04,VALID,1001.41,VALID,0,VALID,92.6312,VALID,0,VALID,22.8818,VALID,105,VALID,1.18242,
2010-07-31, 02:09:04,VALID,1001.41,VALID,0,VALID,92.5626,VALID,0,VALID,22.8818,VALID,102,VALID,0.816016,
2010-07-31, 02:10:04,VALID,1001.4,VALID,0,VALID,92.4252,VALID,0,VALID,22.8818,VALID,95,VALID,0.613672,
2010-07-31, 02:11:04,VALID,1001.34,VALID,0,VALID,92.3337,VALID,0,VALID,22.9013,VALID,94,VALID,0.578125,
2010-07-31, 02:12:04,VALID,1001.3,VALID,0,VALID,92.2726,VALID,0,VALID,22.8818,VALID,94,VALID,0.00585938,
2010-07-31, 02:13:04,VALID,1001.28,VALID,0,VALID,92.1811,VALID,0,VALID,22.9013,VALID,94,VALID,0,
2010-07-31, 02:14:04,VALID,1001.25,VALID,0,VALID,92.1124,VALID,0,VALID,22.88,VALID,76,VALID,0,
2010-07-31, 02:15:04,VALID,1001.21,VALID,0,VALID,92.1353,VALID,0,VALID,22.9208,VALID,304,VALID,0.705859,
2010-07-31, 02:16:04,VALID,1001.16,VALID,0,VALID,92.2574,VALID,0,VALID,22.9208,VALID,295,VALID,0.96875,
2010-07-31, 02:17:04,VALID,1001.12,VALID,0,VALID,92.2726,VALID,0,VALID,22.9208,VALID,289,VALID,1.10039,
2010-07-31, 02:18:04,VALID,1001.08,VALID,0,VALID,92.3337,VALID,0,VALID,22.9208,VALID,287,VALID,0.828516,
2010-07-31, 02:19:04,VALID,1001.05,VALID,0,VALID,92.3108,VALID,0,VALID,22.8995,VALID,287,VALID,0.93125,
2010-07-31, 02:20:04,VALID,1001.01,VALID,0,VALID,92.3566,VALID,0,VALID,22.9013,VALID,302,VALID,1.15859,
2010-07-31, 02:21:04,VALID,1001.03,VALID,0,VALID,92.3566,VALID,0,VALID,22.8818,VALID,299,VALID,1.0625,
2010-07-31, 02:22:04,VALID,1001.03,VALID,0,VALID,92.4176,VALID,0,VALID,22.8818,VALID,290,VALID,0.789063,
2010-07-31, 02:23:04,VALID,1001.04,VALID,0,VALID,92.4023,VALID,0,VALID,22.9225,VALID,287,VALID,0.446875,
2010-07-31, 02:24:04,VALID,1001.04,VALID,0,VALID,92.4176,VALID,0,VALID,22.8605,VALID,287,VALID,0,
2010-07-31, 02:25:04,VALID,1001.08,VALID,0,VALID,92.4328,VALID,0,VALID,22.8818,VALID,287,VALID,0,
2010-07-31, 02:26:04,VALID,1001.14,VALID,0,VALID,92.4176,VALID,0,VALID,22.8623,VALID,287,VALID,0,
2010-07-31, 02:27:04,VALID,1001.13,VALID,0,VALID,92.4252,VALID,0,VALID,22.8215,VALID,287,VALID,0,
2010-07-31, 02:28:04,VALID,1001.17,VALID,0,VALID,92.4252,VALID,0,VALID,22.8215,VALID,287,VALID,0,
2010-07-31, 02:29:04,VALID,1001.16,VALID,0,VALID,92.4634,VALID,0,VALID,22.8427,VALID,180,VALID,0,
2010-07-31, 02:30:04,VALID,1001.17,VALID,0,VALID,92.5168,VALID,0,VALID,22.8427,VALID,166,VALID,0.996094,
2010-07-31, 02:31:04,VALID,1001.16,VALID,0,VALID,92.5244,VALID,0,VALID,22.8605,VALID,187,VALID,0.911719,
2010-07-31, 02:32:04,VALID,1001.16,VALID,0,VALID,92.4328,VALID,0,VALID,22.88,VALID,203,VALID,0.567969,
2010-07-31, 02:33:04,VALID,1001.12,VALID,0,VALID,92.3642,VALID,0,VALID,22.9013,VALID,212,VALID,0.580469,
2010-07-31, 02:34:04,VALID,1001.16,VALID,0,VALID,92.2497,VALID,0,VALID,22.9208,VALID,212,VALID,0.228125,
2010-07-31, 02:35:04,VALID,1001.16,VALID,0,VALID,92.2421,VALID,0,VALID,22.9208,VALID,208,VALID,0.673437,
2010-07-31, 02:36:04,VALID,1001.2,VALID,0,VALID,92.2497,VALID,0,VALID,22.919,VALID,192,VALID,1.00898,
2010-07-31, 02:37:04,VALID,1001.29,VALID,0,VALID,92.204,VALID,0,VALID,22.9793,VALID,179,VALID,0.863281,
2010-07-31, 02:38:04,VALID,1001.34,VALID,0,VALID,92.1506,VALID,0,VALID,22.9776,VALID,140,VALID,1.32969,
2010-07-31, 02:39:04,VALID,1001.42,VALID,0,VALID,92.12,VALID,0,VALID,22.9598,VALID,135,VALID,1.32461,
2010-07-31, 02:40:04,VALID,1001.43,VALID,0,VALID,92.1506,VALID,0,VALID,22.9385,VALID,123,VALID,1.40508,
2010-07-31, 02:41:04,VALID,1001.48,VALID,0,VALID,92.204,VALID,0,VALID,22.9208,VALID,111,VALID,1.43203,
2010-07-31, 02:42:04,VALID,1001.51,VALID,0,VALID,92.3184,VALID,0,VALID,22.9013,VALID,104,VALID,1.65117,
2010-07-31, 02:43:04,VALID,1001.52,VALID,0,VALID,92.4481,VALID,0,VALID,22.8605,VALID,102,VALID,1.50352,
2010-07-31, 02:44:04,VALID,1001.52,VALID,0,VALID,92.5015,VALID,0,VALID,22.8818,VALID,89,VALID,1.36914,
2010-07-31, 02:45:04,VALID,1001.53,VALID,0,VALID,92.532,VALID,0,VALID,22.8818,VALID,92,VALID,1.45,
2010-07-31, 02:46:04,VALID,1001.54,VALID,0,VALID,92.5626,VALID,0,VALID,22.8605,VALID,89,VALID,1.19297,
2010-07-31, 02:47:04,VALID,1001.57,VALID,0,VALID,92.5168,VALID,0,VALID,22.8623,VALID,89,VALID,0.919922,
2010-07-31, 02:48:04,VALID,1001.56,VALID,0,VALID,92.5015,VALID,0,VALID,22.8605,VALID,88,VALID,0.799219,
2010-07-31, 02:49:04,VALID,1001.55,VALID,0,VALID,92.4863,VALID,0,VALID,22.8605,VALID,88,VALID,0.509375,
2010-07-31, 02:50:04,VALID,1001.54,VALID,0,VALID,92.4863,VALID,0,VALID,22.8623,VALID,86,VALID,0,
2010-07-31, 02:51:04,VALID,1001.53,VALID,0,VALID,92.4557,VALID,0,VALID,22.8605,VALID,86,VALID,0,
2010-07-31, 02:52:04,VALID,1001.51,VALID,0,VALID,92.41,VALID,0,VALID,22.8623,VALID,86,VALID,0,
2010-07-31, 02:53:04,VALID,1001.54,VALID,0,VALID,92.3642,VALID,0,VALID,22.8623,VALID,86,VALID,0,
2010-07-31, 02:54:04,VALID,1001.53,VALID,0,VALID,92.3566,VALID,0,VALID,22.8215,VALID,86,VALID,0,
2010-07-31, 02:55:04,VALID,1001.56,VALID,0,VALID,92.3871,VALID,0,VALID,22.8427,VALID,335,VALID,0,
2010-07-31, 02:56:04,VALID,1001.59,VALID,0,VALID,92.4023,VALID,0,VALID,22.8427,VALID,335,VALID,0,
2010-07-31, 02:57:04,VALID,1001.62,VALID,0,VALID,92.4557,VALID,0,VALID,22.841,VALID,335,VALID,0,
2010-07-31, 02:58:04,VALID,1001.67,VALID,0,VALID,92.4634,VALID,0,VALID,22.8427,VALID,335,VALID,0,
2010-07-31, 02:59:04,VALID,1001.68,VALID,0,VALID,92.4863,VALID,0,VALID,22.8232,VALID,335,VALID,0,
2010-07-31, 03:00:04,VALID,1001.73,VALID,0,VALID,92.4786,VALID,0,VALID,22.8232,VALID,335,VALID,0,
2010-07-31, 03:01:04,VALID,1001.76,VALID,0,VALID,92.5015,VALID,0,VALID,22.8427,VALID,335,VALID,0,
2010-07-31, 03:02:04,VALID,1001.79,VALID,0,VALID,92.5244,VALID,0,VALID,22.8232,VALID,335,VALID,0,
2010-07-31, 03:03:04,VALID,1001.79,VALID,0,VALID,92.532,VALID,0,VALID,22.8232,VALID,335,VALID,0,
2010-07-31, 03:04:04,VALID,1001.79,VALID,0,VALID,92.616,VALID,0,VALID,22.8623,VALID,335,VALID,0,
2010-07-31, 03:05:04,VALID,1001.79,VALID,0,VALID,92.6465,VALID,0,VALID,22.841,VALID,335,VALID,0,
2010-07-31, 03:06:04,VALID,1001.78,VALID,0,VALID,92.6541,VALID,0,VALID,22.8623,VALID,335,VALID,0,
2010-07-31, 03:07:04,VALID,1001.8,VALID,0,VALID,92.6999,VALID,0,VALID,22.8427,VALID,335,VALID,0,
2010-07-31, 03:08:04,VALID,1001.78,VALID,0,VALID,92.6541,VALID,0,VALID,22.8427,VALID,335,VALID,0,
2010-07-31, 03:09:04,VALID,1001.78,VALID,0,VALID,92.532,VALID,0,VALID,22.8623,VALID,335,VALID,0,
2010-07-31, 03:10:04,VALID,1001.8,VALID,0,VALID,92.2803,VALID,0,VALID,22.8623,VALID,335,VALID,0,
2010-07-31, 03:11:04,VALID,1001.78,VALID,0,VALID,92.1429,VALID,0,VALID,22.8818,VALID,335,VALID,0,
2010-07-31, 03:12:04,VALID,1001.75,VALID,0,VALID,92.0971,VALID,0,VALID,22.8605,VALID,335,VALID,0,
2010-07-31, 03:13:04,VALID,1001.75,VALID,0,VALID,92.0361,VALID,0,VALID,22.8605,VALID,335,VALID,0,
2010-07-31, 03:14:04,VALID,1001.72,VALID,0,VALID,91.9369,VALID,0,VALID,22.9013,VALID,335,VALID,0,
2010-07-31, 03:15:04,VALID,1001.72,VALID,0,VALID,91.9903,VALID,0,VALID,22.9013,VALID,335,VALID,0,
2010-07-31, 03:16:04,VALID,1001.68,VALID,0,VALID,92.1124,VALID,0,VALID,22.9013,VALID,335,VALID,0,
2010-07-31, 03:17:04,VALID,1001.67,VALID,0,VALID,92.2192,VALID,0,VALID,22.88,VALID,335,VALID,0,
2010-07-31, 03:18:04,VALID,1001.68,VALID,0,VALID,92.3337,VALID,0,VALID,22.8818,VALID,337,VALID,0,
2010-07-31, 03:19:04,VALID,1001.66,VALID,0,VALID,92.4176,VALID,0,VALID,22.8623,VALID,341,VALID,0,
2010-07-31, 03:20:04,VALID,1001.65,VALID,0,VALID,92.4863,VALID,0,VALID,22.8623,VALID,352,VALID,0,
2010-07-31, 03:21:04,VALID,1001.65,VALID,0,VALID,92.5244,VALID,0,VALID,22.8623,VALID,355,VALID,0,
2010-07-31, 03:22:04,VALID,1001.66,VALID,0,VALID,92.5549,VALID,0,VALID,22.8215,VALID,355,VALID,0,
2010-07-31, 03:23:04,VALID,1001.65,VALID,0,VALID,92.5778,VALID,0,VALID,22.8215,VALID,355,VALID,0,
2010-07-31, 03:24:04,VALID,1001.67,VALID,0,VALID,92.6083,VALID,0,VALID,22.8427,VALID,355,VALID,0,
2010-07-31, 03:25:04,VALID,1001.7,VALID,0,VALID,92.6541,VALID,0,VALID,22.8232,VALID,15,VALID,0,
2010-07-31, 03:26:04,VALID,1001.72,VALID,0,VALID,92.6236,VALID,0,VALID,22.8037,VALID,38,VALID,0,
2010-07-31, 03:27:04,VALID,1001.73,VALID,0,VALID,92.6083,VALID,0,VALID,22.7842,VALID,48,VALID,0,
2010-07-31, 03:28:04,VALID,1001.73,VALID,0,VALID,92.6236,VALID,0,VALID,22.7842,VALID,50,VALID,0,
2010-07-31, 03:29:04,VALID,1001.73,VALID,0,VALID,92.6465,VALID,0,VALID,22.7435,VALID,52,VALID,0,
2010-07-31, 03:30:04,VALID,1001.75,VALID,0,VALID,92.6541,VALID,0,VALID,22.7435,VALID,52,VALID,0,
2010-07-31, 03:31:04,VALID,1001.78,VALID,0,VALID,92.6846,VALID,0,VALID,22.7647,VALID,51,VALID,0,
2010-07-31, 03:32:04,VALID,1001.78,VALID,0,VALID,92.6999,VALID,0,VALID,22.7842,VALID,51,VALID,0,
2010-07-31, 03:33:04,VALID,1001.81,VALID,0,VALID,92.7151,VALID,0,VALID,22.7647,VALID,51,VALID,0,
2010-07-31, 03:34:04,VALID,1001.83,VALID,0,VALID,92.6923,VALID,0,VALID,22.7435,VALID,51,VALID,0,
2010-07-31, 03:35:04,VALID,1001.82,VALID,0,VALID,92.7151,VALID,0,VALID,22.724,VALID,47,VALID,0,
2010-07-31, 03:36:04,VALID,1001.8,VALID,0,VALID,92.6923,VALID,0,VALID,22.724,VALID,41,VALID,0,
2010-07-31, 03:37:04,VALID,1001.79,VALID,0,VALID,92.6694,VALID,0,VALID,22.7257,VALID,24,VALID,0,
2010-07-31, 03:38:04,VALID,1001.78,VALID,0,VALID,92.6388,VALID,0,VALID,22.7257,VALID,22,VALID,0,
2010-07-31, 03:39:04,VALID,1001.75,VALID,0,VALID,92.6083,VALID,0,VALID,22.7257,VALID,3,VALID,0,
2010-07-31, 03:40:04,VALID,1001.72,VALID,0,VALID,92.5931,VALID,0,VALID,22.7257,VALID,1,VALID,0,
2010-07-31, 03:41:04,VALID,1001.71,VALID,0,VALID,92.6007,VALID,0,VALID,22.7257,VALID,1,VALID,0,
2010-07-31, 03:42:04,VALID,1001.7,VALID,0,VALID,92.5931,VALID,0,VALID,22.7257,VALID,1,VALID,0,
2010-07-31, 03:43:04,VALID,1001.66,VALID,0,VALID,92.5702,VALID,0,VALID,22.7452,VALID,1,VALID,0,
2010-07-31, 03:44:04,VALID,1001.66,VALID,0,VALID,92.5626,VALID,0,VALID,22.7452,VALID,1,VALID,0,
2010-07-31, 03:45:05,VALID,1001.69,VALID,0,VALID,92.5397,VALID,0,VALID,22.7435,VALID,1,VALID,0,
2010-07-31, 03:46:05,VALID,1001.73,VALID,0,VALID,92.5168,VALID,0,VALID,22.7435,VALID,1,VALID,0,
2010-07-31, 03:47:05,VALID,1001.72,VALID,0,VALID,92.5397,VALID,0,VALID,22.7452,VALID,1,VALID,0,
2010-07-31, 03:48:05,VALID,1001.72,VALID,0,VALID,92.5091,VALID,0,VALID,22.7452,VALID,1,VALID,0,
2010-07-31, 03:49:05,VALID,1001.71,VALID,0,VALID,92.4328,VALID,0,VALID,22.7045,VALID,1,VALID,0,
2010-07-31, 03:50:05,VALID,1001.69,VALID,0,VALID,92.3413,VALID,0,VALID,22.6867,VALID,20,VALID,0,
2010-07-31, 03:51:05,VALID,1001.66,VALID,0,VALID,92.265,VALID,0,VALID,22.6672,VALID,29,VALID,0,
2010-07-31, 03:52:05,VALID,1001.68,VALID,0,VALID,92.2421,VALID,0,VALID,22.6477,VALID,29,VALID,0,
2010-07-31, 03:53:05,VALID,1001.65,VALID,0,VALID,92.2726,VALID,0,VALID,22.6069,VALID,29,VALID,0,
2010-07-31, 03:54:05,VALID,1001.66,VALID,0,VALID,92.3031,VALID,0,VALID,22.6087,VALID,29,VALID,0,
2010-07-31, 03:55:05,VALID,1001.64,VALID,0,VALID,92.3566,VALID,0,VALID,22.5892,VALID,29,VALID,0,
2010-07-31, 03:56:05,VALID,1001.65,VALID,0,VALID,92.3566,VALID,0,VALID,22.5696,VALID,29,VALID,0,
2010-07-31, 03:57:05,VALID,1001.61,VALID,0,VALID,92.4023,VALID,0,VALID,22.5501,VALID,29,VALID,0,